CDT,Max TemperatureF,Mean TemperatureF,Min TemperatureF,Max Dew PointF,MeanDew PointF,Min DewpointF,Max Humidity, Mean Humidity, Min Humidity, Max Sea Level PressureIn, Mean Sea Level PressureIn, Min Sea Level PressureIn, Max VisibilityMiles, Mean VisibilityMiles, Min VisibilityMiles, Max Wind SpeedMPH, Mean Wind SpeedMPH, Max Gust SpeedMPH,PrecipitationIn, CloudCover, Events, WindDirDegrees
2013-10-1,65,55,45,40,34,29,63,45,26,29.90,29.75,29.57,10,10,10,26,16,36,0.00,0,,238
2013-10-2,65,54,43,39,34,27,65,45,25,30.04,29.97,29.90,10,10,10,15,8,20,T,3,,263
2013-10-3,56,49,41,39,36,34,83,65,47,30.29,30.13,30.04,10,10,10,17,9,23,0.00,1,,340
2013-10-4,43,40,36,38,31,28,86,73,60,30.41,30.35,30.28,10,10,10,21,14,25,0.00,6,,357
2013-10-5,49,40,31,31,28,26,85,66,46,30.27,30.17,30.08,10,10,10,24,13,30,0.00,3,,336
2013-10-6,70,50,29,40,32,26,85,54,23,30.07,29.99,29.90,10,10,10,22,10,28,0.00,0,,249
2013-10-7,71,54,37,42,38,35,92,63,33,29.95,29.82,29.61,10,10,9,24,11,35,0.00,1,,179
2013-10-8,70,57,43,40,36,29,76,50,23,29.84,29.66,29.55,10,10,10,21,9,28,0.00,0,,258
2013-10-9,65,51,37,40,36,32,76,57,37,30.06,30.00,29.86,10,10,10,13,7,17,0.00,0,,278
2013-10-10,66,51,36,47,41,34,92,68,44,30.01,29.84,29.67,10,9,2,12,4,15,0.00,3,,70
2013-10-11,55,50,45,54,50,41,100,92,83,29.66,29.49,29.37,10,4,0,41,16,54,1.04,8,Fog-Rain,328
2013-10-12,53,44,34,43,35,31,85,63,41,30.22,29.87,29.54,10,9,6,35,19,46,0.03,3,Rain,282
2013-10-13,55,43,30,33,30,27,89,64,38,30.38,30.32,30.24,10,8,2,12,5,16,0.00,1,,34
2013-10-14,42,40,37,40,38,32,93,88,82,30.34,30.26,30.19,10,6,2,24,13,32,1.05,8,Rain,18
2013-10-15,51,42,33,37,33,30,96,70,44,30.30,30.21,30.05,10,9,2,16,11,21,0.00,4,,303
2013-10-16,59,48,37,40,34,29,76,62,47,30.04,29.93,29.86,10,10,10,22,13,28,0.01,2,Rain,266
2013-10-17,49,42,35,39,31,25,89,66,42,30.10,30.03,29.95,10,10,10,20,11,25,0.01,5,Rain,292
2013-10-18,46,40,33,35,32,29,89,74,58,30.01,29.94,29.81,10,10,10,24,12,31,T,7,,266
2013-10-19,46,41,35,38,29,20,92,70,48,29.85,29.77,29.62,10,10,7,13,6,16,0.09,8,Rain-Snow,126
2013-10-20,44,38,31,41,31,23,96,81,66,30.07,29.84,29.57,10,9,2,22,11,30,0.02,8,Rain-Snow,320
2013-10-21,35,30,24,29,24,19,88,72,56,30.06,30.00,29.91,10,8,2,9,4,12,T,7,Snow,61
2013-10-22,37,33,29,28,26,24,85,75,64,30.17,30.09,29.98,10,9,2,12,5,14,0.01,8,Snow,352
2013-10-23,41,35,28,30,28,25,92,76,59,30.30,30.14,30.03,10,6,1,20,9,24,0.06,6,Snow,313
2013-10-24,39,34,28,28,26,25,85,72,59,30.37,30.32,30.22,10,10,10,14,8,18,0.00,4,,263
2013-10-25,60,46,32,38,30,26,85,59,32,30.17,30.00,29.90,10,10,9,40,18,48,0.00,0,,261
2013-10-26,48,38,27,28,25,22,85,65,45,30.29,30.13,29.82,10,10,10,22,11,26,0.00,0,,250
2013-10-27,48,37,25,32,25,14,76,63,49,30.49,30.10,29.79,10,10,10,22,14,29,0.00,6,,2
2013-10-28,28,25,22,18,14,13,81,69,57,30.66,30.56,30.46,10,10,10,13,6,17,0.00,5,,72
2013-10-29,37,30,22,25,21,16,85,72,59,30.50,30.28,30.09,10,10,10,10,5,17,0.00,6,,142
2013-10-30,45,37,29,32,29,25,92,77,62,30.08,29.87,29.67,10,10,9,14,8,18,0.00,4,,195
2013-10-31,49,39,28,32,29,26,92,71,50,29.64,29.57,29.53,10,10,10,17,11,21,0.00,2,,261